Change the Weather History Date:

Wednesday, September 3, 2014

  Actual Average Record
Temperature  
Mean Temperature 84 °F -  
Max Temperature 88 °F 90 °F 95 °F (1986)
Min Temperature 79 °F 74 °F 64 °F (1950)
Cooling Degree Days 18    
Growing Degree Days 34 (Base 50)    
Moisture  
Dew Point 71 °F    
Average Humidity 68    
Maximum Humidity 82    
Minimum Humidity 57    
Precipitation  
Precipitation 0.11 in - - ()
Sea Level Pressure  
Sea Level Pressure 30.02 in    
Wind  
Wind Speed 7 mph (ESE)    
Max Wind Speed 22 mph    
Max Gust Speed 32 mph    
Visibility 10 miles    
Events Rain    
Averages and records for this station are not official NWS values.
T = Trace of Precipitation, MM = Missing Value Source: NWS Daily Summary

Daily Weather History Graph

Daily Weather History Graph

Search for Another Location

Airport or City:

Trip Planner

Search our weather history database for the weather conditions in past years. The results will help you decide how hot, cold, wet, or windy it might be!

Date:

Astronomy

Sep. 03, 2014 Rise Set
Actual Time 7:01 AM EDT 7:37 PM EDT
Civil Twilight 6:37 AM EDT 8:01 PM EDT
Nautical Twilight 6:10 AM EDT 8:28 PM EDT
Astronomical Twilight 5:42 AM EDT 8:56 PM EDT
Moon 3:00 PM EDT (9/3) 1:11 AM EDT (9/3)
Length of Visible Light 13h 23m
Length of Day
12h 36m
Waxing Gibbous, 63% of the Moon is Illuminated
Sep 3
Waxing Gibbous
Sep 8
Full
Sep 15
Last Quarter
Sep 24
New
Oct 1
First Quarter

Hourly Weather History & Observations

Time (EDT) Temp. Heat Index Dew Point Humidity Pressure Visibility Wind Dir Wind Speed Gust Speed Precip Events Conditions
12:53 AM 82.0 °F 86.3 °F 71.1 °F 69% 30.01 in 10.0 mi ESE 4.6 mph - N/A   Clear
1:53 AM 82.0 °F 86.7 °F 72.0 °F 71% 30.00 in 10.0 mi SE 3.5 mph - N/A   Clear
2:53 AM 81.0 °F 84.4 °F 70.0 °F 69% 30.01 in 10.0 mi SE 4.6 mph - N/A   Clear
3:53 AM 82.0 °F 85.9 °F 70.0 °F 67% 30.00 in 10.0 mi ESE 5.8 mph - N/A   Clear
4:53 AM 82.0 °F 85.9 °F 70.0 °F 67% 29.98 in 10.0 mi ESE 4.6 mph - N/A   Clear
5:53 AM 82.0 °F 85.9 °F 70.0 °F 67% 29.99 in 10.0 mi ESE 6.9 mph - N/A   Partly Cloudy
6:53 AM 80.1 °F 83.6 °F 71.1 °F 74% 30.00 in 10.0 mi North 4.6 mph - N/A   Clear
7:53 AM 81.0 °F 85.2 °F 72.0 °F 74% 30.02 in 10.0 mi North 3.5 mph - N/A   Clear
8:53 AM 84.9 °F 90.1 °F 71.1 °F 63% 30.03 in 10.0 mi ENE 9.2 mph - N/A   Scattered Clouds
9:53 AM 87.1 °F 92.0 °F 70.0 °F 57% 30.04 in 10.0 mi East 9.2 mph - N/A   Mostly Cloudy
10:53 AM 84.9 °F 90.7 °F 72.0 °F 65% 30.05 in 10.0 mi SE 9.2 mph - 0.00 in   Mostly Cloudy
11:04 AM 88.0 °F 94.7 °F 72.0 °F 59% 30.04 in 10.0 mi SE 12.7 mph - N/A   Mostly Cloudy
11:34 AM 80.1 °F 83.8 °F 72.0 °F 76% 30.05 in 1.8 mi NE 21.9 mph 32.2 mph 0.04 in Rain Rain
11:40 AM 79.0 °F - 73.0 °F 82% 30.05 in 7.0 mi NNE 18.4 mph 32.2 mph 0.06 in Rain Rain
11:53 AM 79.0 °F - 73.0 °F 82% 30.04 in 7.0 mi ENE 6.9 mph - 0.11 in Rain Rain
12:53 PM 82.9 °F 90.2 °F 75.0 °F 77% 30.04 in 10.0 mi Variable 4.6 mph - 0.00 in   Mostly Cloudy
1:53 PM 82.9 °F 90.2 °F 75.0 °F 77% 30.02 in 10.0 mi ESE 12.7 mph - N/A   Mostly Cloudy
2:53 PM 84.9 °F 91.4 °F 73.0 °F 67% 30.01 in 10.0 mi East 10.4 mph - N/A   Mostly Cloudy
3:53 PM 84.9 °F 89.4 °F 70.0 °F 61% 29.99 in 10.0 mi East 9.2 mph - 0.00 in   Mostly Cloudy
4:53 PM 84.9 °F 90.7 °F 72.0 °F 65% 29.98 in 10.0 mi ESE 9.2 mph - N/A   Mostly Cloudy
5:53 PM 84.9 °F 90.1 °F 71.1 °F 63% 29.98 in 10.0 mi SE 13.8 mph - N/A   Mostly Cloudy
6:53 PM 84.9 °F 89.4 °F 70.0 °F 61% 29.98 in 10.0 mi SE 6.9 mph - N/A   Mostly Cloudy
7:53 PM 84.9 °F 89.4 °F 70.0 °F 61% 30.00 in 10.0 mi ESE 11.5 mph - N/A   Scattered Clouds
8:53 PM 82.9 °F 87.5 °F 71.1 °F 67% 30.02 in 10.0 mi East 11.5 mph - N/A   Scattered Clouds
9:53 PM 82.9 °F 86.5 °F 69.1 °F 63% 30.05 in 10.0 mi ESE 10.4 mph - N/A   Partly Cloudy
10:53 PM 82.9 °F 86.5 °F 69.1 °F 63% 30.06 in 10.0 mi ESE 6.9 mph - N/A   Clear
11:53 PM 82.9 °F 86.5 °F 69.1 °F 63% 30.06 in 10.0 mi SE 6.9 mph - N/A   Unknown